Home > Weather > Port of Spain > Past weeks

Flag for Trinidad and Tobago Weather for the Past 2 Weeks in Port of Spain, Trinidad and Tobago

Now
79 °F

Passing clouds.


Feels Like: 82 °F
Forecast: N/A
Wind: 6 mph from East

Location: Piarco International Airport - Trinidad

Current Time: Feb 13, 2016 at 7:56:07 PM

Latest Report: Feb 13, 2016 at 7:00 PM


Visibility: 5 mi

Pressure: 29.92 "Hg

Humidity: 79%

Dew point: 72 °F

Location of Port of SpainLocation

Historic Weather in Port of Spain — Graph

°F

Port of Spain Temperature Yesterday

Maximum temperature yesterday: 88 °F (at 11:00 AM)
Minimum temperature yesterday: 73 °F (at 5:00 AM)
Average temperature yesterday: 80 °F

High & Low Weather Summary for the Past Weeks

 TemperatureHumidityPressure
High91 °F (Feb 2, 3:00 PM)100% (Feb 3, 5:00 AM)30.07 "Hg (Feb 3, 5:00 AM)
Low70 °F (Feb 3, 5:00 AM)46% (Jan 31, 1:00 PM)29.83 "Hg (Feb 3, 4:00 PM)
Average79 °F79%29.95 "Hg
* Reported Jan 29 6:00 PM — Feb 13 6:00 PM, Port of Spain, Weather by CustomWeather, © 2016

Note: Actual official high and low records may vary slightly from our data, if they occured in-between our weather recording intervals... More about our weather records

Advertising

Port of Spain Weather History for the Previous 24 Hours

 ConditionsComfort  
Time TempWeatherWind HumidityBarometerVisibility
6:00 PM
Sat, Feb 13
81 °FPassing clouds.8 mph70%29.92 "Hg5 mi
5:00 PM84 °FPassing clouds.10 mph58%29.92 "Hg5 mi
3:00 PM88 °FPassing clouds.16 mph52%29.92 "Hg5 mi
2:00 PM88 °FPassing clouds.14 mph52%29.92 "Hg5 mi
12:00 PM88 °FScattered clouds.17 mph55%29.98 "Hg6 mi
11:00 AM88 °FScattered clouds.15 mph55%30.01 "Hg6 mi
10:00 AM84 °FPassing clouds.15 mph66%30.01 "HgN/A
9:00 AM82 °FPassing clouds.8 mph70%30.01 "HgN/A
8:00 AM77 °FScattered showers. Scattered clouds.5 mph83%29.98 "HgN/A
7:00 AM75 °FPassing clouds.No wind89%29.95 "HgN/A
6:00 AM73 °FPassing clouds.3 mph94%29.95 "HgN/A
5:00 AM73 °FPassing clouds.6 mph94%29.92 "HgN/A
4:00 AM75 °FPassing clouds.5 mph89%29.92 "HgN/A
3:00 AM75 °FPassing clouds.No wind89%29.92 "HgN/A
2:00 AM75 °FScattered showers. Passing clouds.No wind89%29.92 "HgN/A
1:00 AM75 °FPassing clouds.7 mph89%29.95 "HgN/A
12:00 AM77 °FSprinkles. Passing clouds.8 mph83%29.98 "HgN/A
11:00 PM
Fri, Feb 12
77 °FPassing clouds.8 mph79%29.98 "HgN/A
10:00 PM75 °FPassing clouds.7 mph89%29.98 "HgN/A
9:00 PM77 °FPassing clouds.7 mph83%29.98 "HgN/A
8:00 PM77 °FPassing clouds.8 mph83%29.98 "HgN/A
7:00 PM79 °FPassing clouds.12 mph84%29.95 "HgN/A
Weather by CustomWeather, © 2016

See weather overviewHow to use our weather pages